Theta_e
352 352 351 354 356 353 356 353 348 348 346 343 343 345 344 345 345 348 344 344 344 341 343 343 342 343 341 340 341 342 341 340 335 334 334 333 338 338 335 334 338 335 332 334 334 331 335 334 337
355 355 355 351 355 356 356 350 351 348 344 345 344 345 344 344 343 343 346 344 343 341 343 339 339 339 340 338 335 334 333 332 333 333 334 333 334 339 339 333 335 333 333 334 339 341 337 336 338
355 358 357 354 351 354 355 351 351 346 343 345 344 345 345 344 345 346 344 344 341 334 334 335 336 335 334 332 331 331 331 332 334 335 335 333 334 336 336 340 340 340 340 335 333 331 329 336 338
354 354 353 357 354 350 352 351 348 347 346 345 344 345 343 345 346 343 344 344 338 334 342 337 331 331 330 331 331 332 334 335 335 335 335 334 333 333 337 336 333 332 331 331 332 330 330 330 336
348 348 354 355 354 352 350 348 346 348 346 345 342 342 345 347 343 341 343 345 341 342 342 341 330 330 330 331 334 335 335 334 335 335 335 334 333 333 333 335 339 338 333 331 331 331 332 331 332
348 348 354 356 354 352 349 347 347 347 347 344 342 344 347 348 343 342 343 345 342 342 343 342 330 330 330 334 335 335 335 334 332 332 332 333 333 333 333 333 333 334 334 333 333 334 333 333 332
352 352 353 352 354 353 351 346 348 347 345 344 345 347 347 350 345 343 343 343 341 340 343 343 336 330 332 334 334 334 334 333 332 331 331 331 331 331 331 331 332 332 332 332 332 333 333 333 333
351 349 352 352 354 353 349 347 347 344 345 345 344 347 347 346 344 343 343 342 341 340 339 341 343 335 337 335 337 336 335 334 333 332 333 333 333 332 332 332 332 332 335 334 334 333 333 333 333
344 348 350 349 351 350 347 349 345 346 344 346 347 346 346 344 342 344 344 343 339 337 337 332 333 333 336 338 338 336 335 334 333 334 335 336 335 335 335 337 336 336 335 334 335 337 336 334 333
347 350 349 345 345 350 347 348 346 344 346 347 347 340 341 341 342 344 345 344 341 335 334 334 335 336 338 339 340 337 336 339 335 334 334 333 335 333 339 339 333 330 330 332 334 336 338 336 341
346 351 347 347 347 348 348 347 346 344 348 344 345 346 344 345 344 344 346 345 344 340 337 337 337 337 337 338 337 336 336 335 333 331 331 337 340 343 344 345 344 344 342 339 338 332 336 342 333
348 346 347 346 349 348 348 347 347 345 345 345 345 341 344 344 343 344 342 344 345 339 338 338 337 336 335 334 332 332 333 333 335 341 342 343 343 343 343 344 345 346 346 345 345 345 341 343 341
345 345 347 348 342 346 347 347 347 345 345 345 346 347 344 346 346 345 344 341 336 336 335 335 333 332 332 331 331 330 333 343 343 343 345 344 345 345 345 346 346 346 347 346 342 343 344 345 345
346 345 346 346 348 347 348 348 347 346 346 347 346 347 347 348 347 347 340 334 333 333 333 332 331 330 330 330 332 337 340 340 342 343 344 343 343 344 346 345 346 347 348 346 346 344 344 344 344
345 346 347 347 349 348 347 349 349 346 346 348 347 347 348 347 347 344 339 336 338 334 333 333 334 336 334 333 340 344 345 345 345 344 344 345 345 346 347 348 347 347 348 344 344 345 344 344 343
344 345 349 345 348 348 346 353 347 345 347 348 348 348 348 347 344 345 344 340 341 338 337 337 339 335 342 342 343 344 345 346 346 346 346 346 344 346 348 349 348 347 346 344 346 345 344 345 344
339 337 339 343 348 347 348 350 345 345 345 347 347 347 348 348 347 346 345 344 342 344 343 343 342 342 343 346 346 346 346 345 344 344 346 346 345 345 349 349 346 349 345 344 345 348 346 344 344
332 329 332 335 345 348 349 347 345 344 344 346 346 346 346 347 346 345 345 345 344 343 344 345 344 342 344 345 346 344 346 343 343 343 346 347 346 347 349 347 345 347 343 345 345 346 342 342 343
329 328 328 330 337 349 350 349 347 345 344 344 345 345 345 345 344 346 345 345 345 344 344 345 345 343 343 345 344 344 343 345 344 344 345 348 349 348 346 347 345 341 341 345 344 345 345 344 342
325 327 331 339 346 347 349 350 347 346 345 344 343 343 343 344 344 344 343 344 345 344 343 344 344 344 343 343 344 342 342 342 342 343 346 347 347 347 349 346 347 340 341 342 341 341 342 343 345
324 326 328 337 348 346 349 351 348 346 345 344 344 343 342 342 342 342 341 342 343 343 341 342 343 344 342 343 342 342 342 340 342 345 347 347 345 344 347 347 347 340 342 344 345 344 345 345 345
325 323 332 347 350 344 346 344 348 348 348 345 344 344 343 342 342 342 341 341 342 341 341 341 342 344 342 342 341 340 340 341 344 347 347 349 348 342 346 346 348 340 340 345 345 344 345 344 345
326 329 338 348 342 337 344 348 348 345 350 347 345 344 344 343 341 342 341 342 342 341 341 341 341 343 342 342 342 341 340 343 346 347 348 346 346 344 346 348 349 339 344 343 341 342 340 342 343
322 324 328 334 338 339 336 345 340 349 349 348 345 344 344 344 342 341 340 341 341 341 341 341 341 342 343 341 342 343 344 342 346 347 347 346 348 347 348 349 349 331 336 341 338 340 338 338 340
323 326 327 330 337 337 336 340 340 338 344 345 346 344 344 344 343 341 341 341 341 341 341 341 340 342 342 341 341 343 344 344 342 346 347 346 349 349 348 350 351 340 332 337 335 334 332 328 333
324 326 327 330 331 329 334 340 342 340 338 341 342 345 344 344 343 343 341 341 340 340 340 340 340 341 342 341 341 342 343 344 341 345 347 349 350 349 348 346 351 350 341 329 332 332 331 328 327
324 326 323 327 326 333 337 341 340 342 346 340 341 344 346 345 344 343 341 341 341 340 341 340 341 341 340 341 340 342 342 342 340 343 345 347 349 350 351 351 348 349 348 345 337 331 331 332 330
324 321 325 326 329 331 340 340 336 346 349 347 344 346 347 347 345 344 342 341 340 340 341 341 341 341 341 340 340 340 342 338 338 339 342 343 346 350 351 352 350 350 350 347 346 342 330 334 334
330 332 322 324 325 328 328 330 333 339 342 342 345 347 347 348 347 345 344 341 341 341 341 343 342 341 341 340 340 340 343 342 339 339 340 342 344 346 348 350 352 351 350 347 344 344 334 336 337
330 328 327 333 332 325 328 330 338 342 339 344 342 343 347 348 347 346 345 344 342 341 342 343 343 343 343 342 340 340 341 345 343 341 341 341 342 344 346 348 349 352 351 349 345 343 339 336 338
Wind_Speed
8 7 4 1 1 0 3 5 6 11 7 4 11 3 5 4 2 6 23 19 22 24 21 20 19 20 22 20 20 20 18 15 14 14 13 13 15 14 14 15 16 17 16 15 14 13 12 13 12
9 6 2 1 1 6 3 3 10 4 11 15 11 8 4 4 5 18 21 25 23 24 21 20 21 21 21 20 18 18 16 14 14 12 12 12 14 14 13 13 14 15 13 11 11 10 10 10 9
7 3 1 1 2 4 4 4 10 14 19 7 5 6 3 3 12 20 22 27 25 24 23 22 22 22 21 19 17 15 14 13 13 12 12 12 13 13 12 12 12 11 9 7 6 6 7 8 8
5 2 1 2 6 3 3 6 16 16 11 3 11 7 6 7 14 16 27 25 27 25 21 22 22 21 19 16 14 13 12 12 12 11 12 12 10 11 11 10 10 9 7 6 4 4 5 6 6
2 1 3 4 9 5 7 12 12 8 9 9 6 6 13 4 10 24 25 24 25 23 20 21 20 18 16 14 12 11 12 12 11 11 11 10 8 8 7 8 8 8 7 6 5 3 2 4 4
1 1 3 4 4 5 5 9 8 10 10 12 16 15 5 6 17 23 23 22 22 22 20 19 19 16 15 13 12 12 12 11 11 10 10 9 8 7 7 7 7 6 6 5 4 2 2 2 2
0 1 3 4 5 4 3 7 5 7 11 12 12 8 6 13 21 22 22 21 21 20 18 17 17 16 14 12 11 11 11 10 9 9 8 7 6 5 5 5 4 4 3 4 4 3 3 3 2
1 1 3 2 5 3 8 7 11 15 8 12 11 6 9 18 24 23 20 20 19 19 18 18 16 16 14 12 11 10 10 9 9 8 7 6 5 5 4 3 3 3 3 3 3 3 3 4 5
1 2 2 4 5 5 12 7 8 6 19 5 2 16 18 25 25 22 19 18 19 19 18 18 17 16 13 12 11 10 9 9 8 6 6 6 5 4 3 3 3 3 4 4 4 4 4 4 4
1 2 5 4 4 6 14 12 11 8 9 10 19 21 24 25 25 24 22 20 20 21 20 19 17 16 14 13 11 11 10 8 7 7 6 6 6 6 4 2 1 2 3 5 6 6 5 6 6
1 1 3 5 7 4 14 13 8 16 5 12 22 24 23 23 22 21 20 19 20 20 20 19 17 15 13 12 11 11 10 9 8 8 8 7 6 4 3 2 2 1 2 4 4 5 6 7 6
1 1 3 3 4 6 14 12 8 14 5 15 23 27 25 23 22 22 21 20 20 20 19 17 16 15 14 12 12 11 10 10 9 9 9 7 5 2 0 1 3 4 4 4 5 6 8 8 7
2 3 5 8 8 6 9 8 5 11 10 16 25 25 24 20 18 17 17 18 20 20 19 18 17 16 14 13 13 12 12 10 9 8 6 5 3 2 4 5 7 8 9 9 10 11 10 10 9
1 3 1 5 8 8 6 5 7 10 16 21 28 26 23 21 20 17 18 20 20 20 20 19 18 17 16 15 14 13 12 9 7 6 6 4 3 3 6 8 9 10 12 13 13 12 13 11 8
1 2 2 6 3 4 9 5 7 9 19 24 28 25 22 22 20 20 19 19 19 19 20 19 18 17 16 16 16 14 11 9 7 5 3 2 3 4 7 9 9 11 14 13 14 13 14 10 9
2 1 3 2 9 3 6 2 9 17 21 23 24 23 22 22 23 21 20 19 18 18 19 19 19 19 19 18 16 14 11 8 6 5 5 4 4 6 7 8 10 12 13 15 10 10 10 9 11
1 7 7 4 13 7 7 2 4 19 23 22 23 24 22 22 22 23 23 21 20 19 19 19 19 18 18 17 15 13 12 9 6 4 4 4 7 8 7 9 10 12 13 10 2 5 6 5 7
11 8 5 9 6 10 10 6 7 18 22 24 24 24 22 22 25 25 25 24 22 21 19 18 17 17 17 17 16 14 13 11 9 7 4 6 8 10 9 8 9 11 11 6 4 8 8 8 5
8 10 9 8 5 9 14 10 12 19 18 20 23 25 25 24 24 23 25 25 24 24 23 22 20 17 19 19 18 17 15 13 10 8 8 7 8 6 5 6 8 7 6 6 9 8 7 6 5
6 6 3 1 1 10 5 14 12 20 24 28 27 25 27 26 22 22 25 25 25 24 24 24 23 20 19 19 18 16 14 13 14 12 10 8 9 8 6 5 6 4 3 5 7 7 6 5 4
1 5 5 2 6 3 2 5 13 14 17 23 23 25 25 28 26 22 24 25 25 25 25 26 24 22 19 17 17 18 15 13 14 12 10 9 7 4 5 5 6 3 1 3 4 5 4 4 4
4 3 3 6 5 3 3 2 4 12 18 20 26 27 27 28 27 25 24 26 27 26 24 25 25 24 21 18 17 18 15 14 12 12 11 11 9 5 4 5 6 4 1 1 1 2 2 2 2
3 6 5 3 2 2 2 4 3 6 14 19 28 31 31 29 29 29 27 31 29 26 22 21 25 24 23 20 18 17 17 15 16 14 12 10 7 4 3 4 6 4 3 2 2 1 1 2 2
1 1 4 3 2 3 2 3 2 5 8 16 24 31 32 35 31 30 31 29 30 26 25 23 23 25 25 22 19 19 17 18 18 16 11 5 4 4 4 3 5 4 4 4 3 3 2 3 3
2 2 3 1 2 2 1 3 6 5 9 9 23 32 33 32 33 34 32 32 31 30 25 26 25 27 25 24 22 20 19 19 20 18 14 10 7 5 6 6 5 4 4 4 3 4 4 3 4
3 3 3 2 2 2 2 3 1 3 7 11 16 26 27 30 33 33 36 36 34 31 28 28 26 26 26 25 23 20 20 21 21 20 17 12 9 7 7 6 7 5 3 3 3 4 3 3 3
4 4 3 4 1 3 3 3 4 0 5 5 9 18 26 30 32 34 38 37 34 32 31 28 28 27 26 25 24 22 21 22 22 20 19 16 14 12 10 9 8 8 7 5 4 5 4 4 3
2 6 2 1 0 1 1 3 3 9 10 6 5 15 20 24 27 28 34 36 34 32 28 28 30 28 25 26 25 23 21 21 22 22 22 20 18 17 14 12 11 12 9 8 7 8 7 6 6
2 2 5 3 2 1 2 3 8 6 8 12 8 7 14 22 25 28 31 36 35 31 30 26 30 31 29 27 26 25 23 21 22 23 22 21 21 20 19 17 15 15 12 11 9 10 10 9 7
2 3 1 2 2 2 2 3 7 10 6 13 11 7 6 13 18 22 25 29 33 33 31 26 24 30 28 26 27 26 25 23 24 25 23 23 23 22 20 18 19 19 16 16 12 12 11 10 9
Wind_Direction
134 127 126 135 216 92 62 73 98 118 124 163 144 173 129 49 49 119 149 156 153 141 140 145 148 143 138 136 134 138 141 138 133 131 126 119 116 114 110 125 126 128 124 115 102 94 97 100 90
142 140 108 202 64 86 74 96 114 94 116 124 102 109 75 76 78 135 146 151 153 144 143 145 150 148 140 140 138 139 136 137 138 137 129 126 119 115 116 120 129 133 128 118 104 98 98 98 91
139 152 213 205 81 81 97 104 104 109 143 128 102 72 67 71 120 137 151 151 155 148 144 145 144 141 142 139 138 136 138 140 136 136 136 131 123 118 116 124 130 133 133 133 115 103 103 97 94
146 191 144 44 73 55 42 100 120 120 122 112 131 77 72 105 129 148 150 154 153 150 146 146 147 146 144 142 140 139 140 134 135 135 133 133 132 128 127 125 131 139 147 145 128 110 102 100 105
137 240 76 84 61 55 101 120 122 111 107 122 140 105 113 52 138 148 150 152 155 151 148 151 154 152 147 145 144 144 140 140 138 137 135 136 141 142 143 146 148 150 158 159 158 163 133 109 116
207 338 81 90 80 82 98 134 118 99 116 117 109 113 107 128 150 148 152 153 157 153 152 156 159 157 153 148 145 147 149 145 143 140 136 139 142 140 143 144 150 161 174 181 185 198 191 170 127
322 116 107 106 91 108 119 139 106 103 124 125 125 107 124 142 155 151 152 156 157 159 156 160 164 164 160 157 156 157 159 157 150 146 144 143 144 149 155 156 161 172 193 203 202 215 233 227 221
96 77 132 78 137 102 132 125 127 120 106 128 126 150 155 161 159 158 153 158 159 161 165 163 165 167 168 165 167 167 170 165 169 165 164 171 170 176 176 177 190 192 204 222 225 224 231 246 247
88 87 88 131 157 137 151 126 139 104 135 92 118 144 154 155 160 160 157 159 166 168 171 175 175 173 174 171 171 173 174 177 180 181 181 176 172 175 172 196 215 232 230 229 234 242 252 251 250
76 102 195 173 160 152 155 136 142 135 131 91 100 133 151 157 166 166 168 169 173 176 177 180 181 178 180 177 176 181 183 187 179 181 168 144 137 145 144 159 198 235 245 257 255 256 259 259 244
102 151 121 161 132 111 158 139 134 151 145 152 147 148 156 161 168 172 176 177 177 178 181 183 183 180 181 181 181 185 181 178 176 179 169 166 155 147 130 81 58 346 300 259 264 260 246 250 249
40 71 110 112 163 121 153 144 143 164 162 168 164 159 163 169 174 177 178 181 181 182 179 180 179 180 179 179 183 186 180 176 175 162 152 152 151 155 210 308 311 315 311 307 295 276 264 257 255
223 184 165 150 125 111 146 139 134 158 134 157 164 167 173 175 177 183 184 185 184 183 182 180 178 176 173 173 175 168 166 166 164 171 177 190 198 254 291 299 298 292 289 282 286 277 271 269 268
323 224 207 188 150 135 158 150 151 187 153 151 167 174 178 181 183 185 190 184 184 182 184 181 177 175 175 172 165 160 162 167 176 182 189 202 239 288 302 308 312 300 292 284 276 283 260 252 265
232 284 229 212 186 116 139 169 204 158 169 166 174 177 182 187 192 192 182 184 178 179 182 181 179 179 175 173 170 162 158 167 172 173 196 231 275 310 315 327 316 305 307 300 274 267 254 265 245
259 217 333 129 166 153 164 209 177 170 166 172 177 183 186 192 200 202 199 192 187 182 180 177 178 176 175 172 174 177 183 195 203 228 239 247 271 301 317 321 320 326 318 313 284 251 239 248 225
348 328 307 304 189 149 181 255 167 180 175 175 181 186 190 200 208 213 209 206 198 193 189 184 187 185 185 185 189 196 202 204 195 218 240 251 268 283 304 325 322 331 329 333 264 210 202 224 190
309 314 301 284 187 196 191 200 166 185 180 181 183 192 194 202 214 217 217 215 213 209 204 201 199 194 196 199 203 204 203 198 214 225 243 267 265 280 288 314 331 334 345 18 112 141 143 146 166
288 287 305 280 229 185 211 214 189 189 191 185 190 193 199 206 211 218 224 220 221 222 217 211 211 207 204 207 210 212 210 211 219 235 257 282 279 298 294 302 330 344 6 61 95 118 141 157 159
277 288 20 139 271 209 221 227 209 190 201 194 191 198 202 210 212 217 223 222 225 225 225 222 218 217 215 218 221 225 221 227 231 240 264 282 293 271 284 302 320 334 58 103 110 118 132 136 141
260 345 5 33 134 225 211 237 201 208 207 206 207 205 205 209 213 217 220 222 225 229 232 231 224 219 218 223 224 226 228 229 219 233 252 270 306 286 266 292 300 279 192 126 122 125 140 155 165
307 309 329 134 142 327 251 312 197 203 209 209 205 205 209 209 217 221 221 223 225 231 235 236 230 223 218 220 225 224 224 219 220 235 253 268 273 291 266 293 298 265 231 201 169 174 180 187 191
311 25 18 102 112 288 170 260 122 182 212 214 209 208 208 210 214 219 221 233 234 235 236 240 236 223 220 221 223 224 223 220 232 237 254 265 239 247 256 300 315 269 252 270 265 243 202 203 194
67 140 59 74 12 254 37 293 242 197 212 216 212 213 209 211 212 217 221 226 231 235 237 237 235 229 221 221 225 226 227 223 230 233 243 230 233 239 250 290 316 255 232 227 238 236 218 190 171
178 228 321 240 235 311 50 262 280 259 239 222 203 211 209 210 212 217 220 224 230 232 233 235 236 232 223 223 226 230 230 230 230 231 235 257 273 276 269 273 293 295 245 242 257 271 263 236 209
181 269 241 283 203 335 155 255 54 252 292 259 221 213 205 210 212 214 219 223 228 231 233 238 237 236 230 228 228 231 233 233 231 228 234 251 250 250 260 264 273 286 289 259 271 289 256 223 232
135 186 49 115 96 262 349 283 274 144 23 72 177 195 198 204 211 215 218 222 225 228 230 231 234 238 234 232 232 232 232 234 234 230 231 238 239 244 257 262 264 271 274 277 288 268 267 258 270
268 128 162 90 314 331 31 291 325 25 24 24 166 193 201 207 210 212 219 220 224 228 231 229 231 235 238 233 233 234 233 235 236 234 233 237 239 244 253 260 258 259 270 279 296 286 252 255 267
151 133 67 109 349 345 332 311 8 356 19 357 347 235 211 204 205 209 218 222 225 226 229 234 229 232 238 238 236 236 236 235 238 238 235 236 241 244 250 257 258 258 267 265 284 277 246 245 252
32 51 356 354 122 63 335 274 40 31 17 7 4 359 235 228 223 208 212 220 223 223 228 226 226 233 237 244 239 238 241 242 243 242 240 241 243 247 250 254 258 260 264 260 263 274 250 252 264